Погода Могилёв-Подольский

Погода Могилёв-Подольский : погода сейчас, прогноз погоды и архив. Всё, что Вы хотите узнать о погоде Могилёв-Подольский!

Хотите узнать прогноз погоды Могилёв-Подольский? Тогда Вам сюда: Погода Могилёв-Подольский

Поиск расширенной информации на нашем сайте:

Другие новости

Новости СМИ2

Главная страница сайта

Новости сайта

03.07.2017

Напоминаем, что на нашем специализированном сайте Метеоцентр.Азия вы можете получить высокодетализированные автоматические прогнозы погоды по пунктам России, СНГ и мира в авиационном формате (включающие направление и скорость ветра, видимость, явления погоды, количество и форму облачности, нижнюю и верхнюю границу облачности).


Погода Могилёв-Подольский - сегодня

Время (UTC), дата Ветер
(°,м/с) 
Видим.   Явления Облачность Т
(°С)
Тd
(°С)
f(%) Тe
(°С)
Pmin
(гПа)
dP
(гПа)
Po
(мм)
O2
(г/м3)
Тmin Tmax R s Состояние
почвы
18 17.06.18 тихо ()   10 км  в посл. час гроза{ливн. осадки}  8/5 600 м кучево-дожд., средняя 
[Cb calv|Ac trans]
+17.8 +16.6 93 +29  1012.7  1.5  753  281    +28.1  18     
21 17.06.18 тихо ()   10 км    6/0 средняя 
[Ac trans]
+18 +17 94 +30  1012.5  -0.2  752  281        <0.5   
00 18.06.18 тихо ()   2000 м  дымка  4/0 средняя 
[Ac trans]
+16.8 +16.1 96 +27  1012.7  0.2  753  282           
03 18.06.18 тихо ()   0500 м  туман  ?/?  
+16 +15.7 98 +26  1012.7  753  283           
06 18.06.18 тихо ()   10 км  {туман}  8/3 600 м кучево-дожд., средняя, верхняя 
[Cb calv|Ac trans|Ci fib]
+18 +16.9 93 +30  1013.2  0.5  753  281  +15.4  -2       
09 18.06.18 тихо ()   20000 м  {ливн. осадки}  6/0 средняя, верхняя 
[Ac trans|Ci fib]
+23.7 +18.3 72 +38  1013.7  0.7  754  275           
12 18.06.18 340 (С) 20000 м  {ливн. осадки}  5/3 600 м верхняя 
[Cu med, cong|Ci fib]
+28 +18.1 55 +42  1013.1  -0.4  753  271      0.7     
15 18.06.18 090 (В) 20000 м    4/3 600 м верхняя 
[Cu med, cong|Ci fib]
+29 +15.1 43 +38  1012.8  -0.3  753  271        <0.5   
18 18.06.18 030 (СВ) 20000 м    5/0 средняя, верхняя 
[Ac trans|Ci fib]
+24.6 +19 71 +41  1013.3  0.4  753  274    +29.2  0.7     
21 18.06.18 тихо ()   10 км    ясно 
+20.4 +17.8 85 +34  1015.3  1.8  755  279           
00 19.06.18 тихо ()   10 км    ясно 
+17 +16 94 +27  1015.9  0.5  755  283           
03 19.06.18 тихо ()   4000 м  дымка  ясно 
+15.8 +15.1 96 +24  1017  756  285           
06 19.06.18 тихо ()   20000 м  {туман}  ясно 
+20 +17 83 +32  1017.1  0.3  756  280  +15.4         
09 19.06.18 тихо ()   20000 м    1/0 средняя 
[Ac trans]
+27.9 +16.7 51 +39  1016.4  -0.5  756  273           
12 19.06.18 290 (З) 20000 м    5/5 600 м 
[Cu med, cong]
+30.1 +17.4 47 +43  1016.3  756  270           
15 19.06.18 360 (С) 20000 м    5/5 600 м 
[Cu med, cong]
+29 +18.1 52 +43  1015.9  -0.4  755  271           
18 19.06.18 тихо ()   20000 м    3/0 верхняя 
[Ci fib]
+25.9 +19.6 68 +43  1016  755  273    +30.3       
21 19.06.18 тихо ()   10 км    ясно 
+20.8 +19.4 92 +38  1017.2  756  278           
00 20.06.18 тихо ()   10 км    ясно 
+18.9 +17.6 92 +32  1018.1  0.8  757  281           
03 20.06.18 тихо ()   0500 м  туман  ?/?  
+18 +17.7 98 +31  1018.4  0.3  757  282           
06 20.06.18 тихо ()   20000 м  {туман}  6/0 верхняя 
[Ci fib]
+22.9 +19 79 +39  1019.2  0.9  758  277  +17.8         
09 20.06.18 220 (ЮЗ) 20000 м    8/0 средняя, верхняя 
[Ac trans|Ci fib]
+27.9 +15.5 47 +37  1019.9  0.9  758  274           
12 20.06.18 020 (С) 20000 м    5/3 1000 м верхняя 
[Cu hum|Ci fib]
+29.5 +14.3 40 +37  1019.6  -0.3  758  273           
15 20.06.18 360 (С) 20000 м    3/1 1000 м верхняя 
[Cu hum|Ci fib]
+29.4 +13.5 38 +35  1018.9  -0.7  758  273           
18 20.06.18 тихо ()   20000 м    3/0 верхняя 
[Ci sp]
+26.2 +16.5 55 +37  1018.8  -0.2  757  275    +30.5       
Время (UTC), дата Ветер
(°,м/с) 
Видим.   Явления Облачность Т
(°С)
Тd
(°С)
f(%) Тe
(°С)
Pmin
(гПа)
dP
(гПа)
Po
(мм)
O2
(г/м3)
Тmin Tmax R s Состояние
почвы

Для получения пояснительной информации подведите курсор к названию столбца.

ПОГОДА Могилёв-Подольский - архив

Всё, что Вы хотите узнать о погоде Могилёв-Подольский - удобно и подробно!

Выберите нужную дату (начиная с 1 января 2015* года) и нажмите кнопку "Найти".
Будут отображены архивные сводки погоды по пункту Могилёв-Подольский, начиная с указанной даты.


Отображать данные в формате CSV (для использования в таблицах Excel)


Внимание! Наш архив погоды предназначен исключительно для личного некоммерческого использования в познавательных целях. Если Вам необходимы официальные справки о состоянии погоды (для производственных, юридических, коммерческих и т.п. целей), обращайтесь в органы Росгидромета.

*Примечание: данная дата относится к архиву по метеостанциям СССР (Россия, СНГ, Балтия).
Архив по метеостанциям Зарубежной Европы и Азии (кроме Китая) хранится 10 дней, по другим регионам земного шара (Китай, Африка, Америка, Австралия, Океания) - 1 день.

Могилёв-Подольский - район местоположения метеостанции


Название, широта, долгота, высота метеостанции:
Могилёв-Подольский 48.4°ш. 27.8°д. 78 м над ур. моря [Украина]

Дополнительная информация

В oтличие oт бoльшинства пoгoдных сайтoв мы публикуем пoдрoбную метеoинфoрмацию в детальнoм прoфессиoнальнoм фoрмате.

Характеристики температуры и влажнoсти вoздуха измеряются на высoте 2 м в тени вдали oт зданий и деревьев.
Скoрoсть ветра измеряется на высoте 10 м (на урoвне рoста челoвека скoрoсть ветра ниже в 1.5-2 раза). Если метеoстанция нахoдится в гoрoде или в лесу, тo скoрoсть ветра занижена на 2-4 м/с пo сравнению с oткрытым местoм. Скoрoсть ветра над акватoриями крупных рек и oзёр, а также на вершинах хoлмoв на 2-5 м/с выше, чем в oбычных услoвиях.
Атмoсфернoе давление в разных тoчках местнoсти мoжет значительнo oтличаться oт давления на метеoстанции, в зависимoсти oт услoвий рельефа (при пoдъёме на 10 м давление пoнижается примернo на 1 мм рт.ст.).